Location: Most
(50.5330°N, 13.6500°E)
Time: 13:58:27
(UTC+01:00)

N. Korean satellite - Pass Details

Date: 24 October 2021
Orbit: 446 x 495 km, 97.3° (Epoch: 06 December)

Event Time Altitude Azimuth Distance (km) Brightness Sun altitude
Rises 05:58:33 0° 19° (NNE) 2,601 10.6 -17.2°
Reaches altitude 10° 06:00:45 10° 28° (NNE) 1,710 9.7 -16.8°
Maximum altitude 06:04:12 37° 97° (E) 791 8.3 -16.3°
Drops below altitude 10° 06:07:35 10° 166° (SSE) 1,683 9.5 -15.8°
Sets 06:09:45 0° 175° (S) 2,552 10.3 -15.4°
